FW2316 Weather Reports


Display with metric or nautical units.
time (UTC)temp
F
wind
direction
speed
MPH
gust
MPH
rain 1hr
in
rain 24hr
in
rain mn
in
humidity
%
barometer
mb
20260502201047 70 279 5.0 8.0 0.00 0.00 0.00 65 1016.4
20260502200512 68 283 3.0 8.0 0.00 0.00 0.00 68 1016.4
20260502200011 69 208 4.0 6.0 0.00 0.00 0.00 67 1016.4
20260502195508 68 251 2.0 8.0 0.00 0.00 0.00 70 1016.6
20260502195008 67 236 3.0 8.0 0.00 0.00 0.00 70 1016.6
20260502194512 67 230 1.0 9.0 0.00 0.00 0.00 71 1016.7
20260502194009 67 235 6.0 9.0 0.00 0.00 0.00 71 1016.7
20260502193505 66 252 4.0 7.0 0.00 0.00 0.00 70 1016.7
20260502193005 65 198 0.0 7.0 0.00 0.00 0.00 72 1016.7
20260502192503 66 192 3.0 7.0 0.00 0.00 0.00 70 1016.8
20260502191503 68 301 4.0 10.0 0.00 0.00 0.00 66 1017.0
20260502191002 65 303 4.0 10.0 0.00 0.00 0.00 72 1017.1
20260502190501 64 209 4.0 7.0 0.00 0.00 0.00 73 1017.1
20260502190001 63 220 1.0 6.0 0.00 0.00 0.00 72 1017.2
20260502185501 65 236 4.0 7.0 0.00 0.00 0.00 70 1017.2
20260502185059 64 261 2.0 8.0 0.00 0.00 0.00 73 1017.2
20260502184603 64 251 4.0 8.0 0.00 0.00 0.00 71 1017.4
20260502184059 64 307 2.0 7.0 0.00 0.00 0.00 73 1017.5
20260502183557 62 186 3.0 6.0 0.00 0.00 0.00 76 1017.4
20260502183058 63 184 3.0 6.0 0.00 0.00 0.00 73 1017.5
20260502182555 62 183 1.0 5.0 0.00 0.00 0.00 75 1017.4
20260502181615 61 178 2.0 5.0 0.00 0.00 0.00 77 1017.5
20260502181101 61 180 2.0 5.0 0.00 0.00 0.00 77 1017.5
20260502180557 62 189 2.0 5.0 0.00 0.00 0.00 75 1017.4
20260502164042 56 302 1.0 5.0 0.00 0.00 0.00 84 1017.4
20260502163541 55 300 0.0 5.0 0.00 0.00 0.00 85 1017.3
20260502163040 54 279 2.0 6.0 0.00 0.00 0.00 87 1017.4
20260502162539 54 255 1.0 5.0 0.00 0.00 0.00 87 1017.5
20260502161541 54 229 0.0 3.0 0.00 0.00 0.00 87 1017.5
20260502161037 54 229 0.0 4.0 0.00 0.00 0.00 88 1017.5
20260502160536 53 229 1.0 4.0 0.00 0.00 0.00 90 1017.6
20260502151528 51 296 2.0 4.0 0.00 0.00 0.00 93 1017.5
20260502151027 51 296 2.0 4.0 0.00 0.00 0.00 92 1017.5
20260502150527 50 296 0.0 3.0 0.00 0.00 0.00 92 1017.5
20260502130512 50 279 1.0 5.0 0.00 0.00 0.00 92 1017.4
20260502123508 50 292 0.0 4.0 0.00 0.00 0.00 92 1017.2
20260502123008 50 292 3.0 4.0 0.00 0.00 0.00 91 1017.1
20260502122507 50 292 1.0 5.0 0.00 0.00 0.00 91 1017.3
20260502121509 50 292 2.0 3.0 0.00 0.00 0.00 91 1017.3
20260502121010 51 292 0.0 5.0 0.00 0.00 0.00 91 1017.4
20260502120508 51 292 3.0 5.0 0.00 0.00 0.00 91 1017.4
20260502115505 50 290 2.0 4.0 0.00 0.00 0.00 91 1017.4
20260502115005 50 273 1.0 3.0 0.00 0.00 0.00 91 1017.8
20260502114505 50 273 0.0 3.0 0.00 0.00 0.00 91 1017.8
20260502114006 50 273 1.0 3.0 0.00 0.00 0.00 91 1018.0
20260502113507 51 273 0.0 3.0 0.00 0.00 0.00 91 1018.0
20260502113005 51 273 1.0 3.0 0.00 0.00 0.00 91 1018.0
20260502112506 51 273 1.0 3.0 0.00 0.00 0.00 90 1017.9
20260502111504 51 273 0.0 6.0 0.00 0.00 0.00 91 1017.9
20260502111003 51 269 2.0 6.0 0.00 0.00 0.00 90 1017.9
20260502110504 51 226 1.0 4.0 0.00 0.00 0.00 90 1018.0
20260502110003 51 223 1.0 3.0 0.00 0.00 0.00 90 1018.2
20260502105503 50 223 0.0 3.0 0.00 0.00 0.00 90 1018.3
20260502105003 51 223 0.0 5.0 0.00 0.00 0.00 90 1018.4
20260502104502 51 223 2.0 7.0 0.00 0.00 0.00 90 1018.6
20260502104001 51 223 4.0 7.0 0.00 0.00 0.00 89 1018.5
20260502103600 51 222 3.0 7.0 0.00 0.00 0.00 89 1018.5
20260502103102 51 221 3.0 8.0 0.00 0.00 0.00 89 1018.4
20260502102559 52 222 2.0 8.0 0.00 0.00 0.00 89 1018.3
20260502101557 52 215 4.0 7.0 0.00 0.00 0.00 89 1018.0
20260502101057 52 211 1.0 3.0 0.00 0.00 0.00 88 1017.7
20260502100555 52 211 1.0 3.0 0.00 0.00 0.00 88 1017.4
20260502091050 53 211 1.0 3.0 0.00 0.00 0.00 86 1017.5
20260502090552 54 211 2.0 3.0 0.00 0.00 0.00 85 1017.2
20260502071045 57 206 0.0 0.0 0.00 0.00 0.00 76 1017.4
20260502070545 57 206 0.0 0.0 0.00 0.00 0.00 75 1017.3
20260502070045 57 206 0.0 2.0 0.00 0.00 0.00 75 1017.4
20260502065545 57 206 0.0 2.0 0.00 0.00 0.00 74 1017.4
20260502064555 58 206 1.0 2.0 0.00 0.00 0.00 73 1017.3
20260502064043 58 206 0.0 3.0 0.00 0.00 0.00 73 1017.3
20260502063543 58 206 1.0 3.0 0.00 0.00 0.00 74 1017.4
20260502063043 58 206 2.0 3.0 0.00 0.00 0.00 74 1017.5
20260502062543 58 206 1.0 3.0 0.00 0.00 0.00 74 1017.5
20260502062041 59 206 1.0 3.0 0.00 0.00 0.00 73 1017.4
20260502061542 59 206 1.0 3.0 0.00 0.00 0.00 73 1017.4
20260502061040 59 206 0.0 5.0 0.00 0.00 0.00 73 1017.4
20260502060540 59 206 2.0 5.0 0.00 0.00 0.00 73 1017.6
20260502060043 60 213 2.0 6.0 0.00 0.00 0.00 72 1017.4
20260502055541 60 217 2.0 6.0 0.00 0.00 0.00 71 1017.3
20260502054548 61 225 2.0 8.0 0.00 0.00 0.00 70 1017.1
20260502054040 61 217 4.0 8.0 0.00 0.00 0.00 69 1017.2
20260502053543 61 264 2.0 4.0 0.00 0.00 0.00 69 1017.0
20260502053042 61 270 2.0 5.0 0.00 0.00 0.00 68 1017.0
20260502052541 61 270 3.0 5.0 0.00 0.00 0.00 68 1017.0
20260502052044 61 308 1.0 3.0 0.00 0.00 0.00 68 1016.9
20260502051541 61 308 1.0 3.0 0.00 0.00 0.00 68 1016.9
20260502051040 62 308 1.0 2.0 0.00 0.00 0.00 68 1016.8
20260502050543 61 308 0.0 0.0 0.00 0.00 0.00 70 1016.7
20260502050040 62 308 0.0 0.0 0.00 0.00 0.00 69 1016.7
20260502045540 62 308 0.0 2.0 0.00 0.00 0.00 69 1016.7
20260502044541 62 308 0.0 0.0 0.00 0.00 0.00 68 1016.7
20260502044038 62 308 0.0 0.0 0.00 0.00 0.00 66 1016.6
20260502043538 62 308 0.0 0.0 0.00 0.00 0.00 65 1016.6
20260502043041 62 308 0.0 0.0 0.00 0.00 0.00 65 1016.6
20260502042539 63 308 0.0 0.0 0.00 0.00 0.00 65 1016.5
20260502042038 63 308 0.0 0.0 0.00 0.00 0.00 65 1016.4
20260502041539 63 308 0.0 0.0 0.00 0.00 0.00 65 1016.3
20260502041042 63 308 0.0 0.0 0.00 0.00 0.00 65 1016.2
20260502040539 63 308 0.0 0.0 0.00 0.00 0.00 63 1016.2
20260502040051 63 308 0.0 0.0 0.00 0.00 0.00 64 1016.1
20260502035541 64 308 0.0 0.0 0.00 0.00 0.00 65 1016.1
20260502034537 64 42 0.0 1.0 0.00 0.00 0.00 60 1015.8
20260502034037 64 42 0.0 1.0 0.00 0.00 0.00 60 1015.8
20260502033537 64 41 0.0 0.0 0.00 0.00 0.00 60 1015.8
20260502033037 64 42 0.0 1.0 0.00 0.00 0.00 60 1015.7
20260502032537 65 42 0.0 1.0 0.00 0.00 0.00 60 1015.7
20260502032037 65 42 0.0 0.0 0.00 0.00 0.00 59 1015.7
20260502031545 65 42 0.0 1.0 0.00 0.00 0.00 60 1015.7
20260502031037 65 42 0.0 1.0 0.00 0.00 0.00 59 1015.6
20260502030537 66 41 0.0 1.0 0.00 0.00 0.00 59 1015.6
20260502030037 66 41 0.0 2.0 0.00 0.00 0.00 59 1015.4
20260502025537 66 41 1.0 2.0 0.00 0.00 0.00 59 1015.4
20260502024537 67 315 2.0 4.0 0.00 0.00 0.00 59 1015.4
20260502024036 68 316 2.0 5.0 0.00 0.00 0.00 59 1015.3
20260502023538 68 316 3.0 6.0 0.00 0.00 0.00 58 1015.4
20260502023039 68 315 3.0 6.0 0.00 0.00 0.00 59 1015.3
20260502022536 68 317 2.0 9.0 0.00 0.00 0.00 59 1015.3
20260502022036 68 317 4.0 9.0 0.00 0.00 0.00 59 1015.2
20260502021538 69 306 3.0 5.0 0.00 0.00 0.00 60 1015.1
20260502021035 69 298 2.0 5.0 0.00 0.00 0.00 60 1015.1
20260502020535 69 296 2.0 7.0 0.00 0.00 0.00 60 1015.1
20260502020035 69 295 3.0 7.0 0.00 0.00 0.00 60 1015.0
20260502015535 69 297 3.0 8.0 0.00 0.00 0.00 61 1015.2
20260502014546 69 317 4.0 8.0 0.00 0.00 0.00 59 1015.1
20260502014033 70 316 3.0 7.0 0.00 0.00 0.00 56 1015.1
20260502013533 70 302 4.0 7.0 0.00 0.00 0.00 55 1015.3
20260502013032 70 300 3.0 6.0 0.00 0.00 0.00 54 1015.3
20260502012532 71 306 4.0 9.0 0.00 0.00 0.00 53 1015.3
20260502012034 71 317 4.0 9.0 0.00 0.00 0.00 52 1015.3
20260502011532 71 326 3.0 8.0 0.00 0.00 0.00 51 1015.3
20260502011033 71 284 2.0 5.0 0.00 0.00 0.00 51 1015.3
20260502010531 71 286 2.0 10.0 0.00 0.00 0.00 50 1015.3
20260502010034 71 280 2.0 5.0 0.00 0.00 0.00 50 1015.3
20260502005631 71 281 3.0 7.0 0.00 0.00 0.00 49 1015.4
20260502004535 71 260 2.0 7.0 0.00 0.00 0.00 49 1015.3
20260502004032 71 290 2.0 7.0 0.00 0.00 0.00 49 1015.4
20260502003531 72 286 4.0 7.0 0.00 0.00 0.00 49 1015.2
20260502003030 71 266 3.0 9.0 0.00 0.00 0.00 50 1015.2
20260502002530 71 267 3.0 9.0 0.00 0.00 0.00 49 1015.2
20260502002030 72 282 3.0 9.0 0.00 0.00 0.00 49 1015.2
20260502001549 72 281 5.0 9.0 0.00 0.00 0.00 49 1015.3
20260502001030 71 234 3.0 7.0 0.00 0.00 0.00 51 1015.2
20260502000530 71 238 2.0 7.0 0.00 0.00 0.00 53 1015.1
20260502000029 71 244 3.0 8.0 0.00 0.00 0.00 51 1015.1
20260501235529 71 240 4.0 8.0 0.00 0.00 0.00 50 1015.2
20260501234527 71 263 3.0 8.0 0.00 0.00 0.00 48 1015.3
20260501234027 72 238 4.0 7.0 0.00 0.00 0.00 47 1015.3
20260501233529 72 265 3.0 8.0 0.00 0.00 0.00 47 1015.4
20260501233027 72 280 2.0 8.0 0.00 0.00 0.00 46 1015.3
20260501232528 73 278 4.0 8.0 0.00 0.00 0.00 47 1015.4
20260501232024 73 260 4.0 8.0 0.00 0.00 0.00 45 1015.5
20260501231525 72 275 5.0 8.0 0.00 0.00 0.00 46 1015.5
20260501231023 73 234 4.0 9.0 0.00 0.00 0.00 45 1015.6
20260501230524 72 327 5.0 9.0 0.00 0.00 0.00 47 1015.7
20260501230021 74 275 3.0 7.0 0.00 0.00 0.00 45 1015.8
20260501225521 72 290 3.0 8.0 0.00 0.00 0.00 47 1015.8
20260501224521 72 217 0.0 3.0 0.00 0.00 0.00 46 1016.0
20260501224023 72 183 0.0 3.0 0.00 0.00 0.00 44 1016.0
20260501223520 73 311 0.0 4.0 0.00 0.00 0.00 44 1016.1
20260501223022 73 268 0.0 4.0 0.00 0.00 0.00 47 1016.2
20260501222520 73 215 0.0 5.0 0.00 0.00 0.00 44 1016.3
20260501222020 73 243 0.0 5.0 0.00 0.00 0.00 45 1016.2
20260501221519 73 240 0.0 2.0 0.00 0.00 0.00 45 1016.3
20260501221019 73 232 0.0 2.0 0.00 0.00 0.00 47 1016.4
20260501220519 72 221 0.0 6.0 0.00 0.00 0.00 47 1016.4
20260501220018 72 238 2.0 6.0 0.00 0.00 0.00 48 1016.4
20260501215516 72 225 0.0 4.0 0.00 0.00 0.00 49 1016.4
20260501214514 73 313 1.0 6.0 0.00 0.00 0.00 48 1016.5
20260501214014 73 221 0.0 6.0 0.00 0.00 0.00 50 1016.4
20260501213517 73 199 0.0 3.0 0.00 0.00 0.00 49 1016.5
20260501213014 73 230 0.0 4.0 0.00 0.00 0.00 49 1016.5
20260501212513 73 254 1.0 4.0 0.00 0.00 0.00 51 1016.5
20260501212013 73 240 0.0 3.0 0.00 0.00 0.00 50 1016.5
20260501211512 73 23 0.0 3.0 0.00 0.00 0.00 51 1016.6
20260501211012 72 192 0.0 7.0 0.00 0.00 0.00 52 1016.5
20260501210510 72 219 1.0 4.0 0.00 0.00 0.00 51 1016.5
20260501210024 72 301 0.0 8.0 0.00 0.00 0.00 53 1016.4
20260501205508 72 213 3.0 8.0 0.00 0.00 0.00 54 1016.6
20260501204512 70 226 5.0 11.0 0.00 0.00 0.00 60 1016.6
20260501204012 70 213 7.0 11.0 0.00 0.00 0.00 58 1016.5
20260501203512 71 238 3.0 11.0 0.00 0.00 0.00 60 1016.5
20260501203015 70 287 6.0 11.0 0.00 0.00 0.00 59 1016.5
20260501202511 69 212 5.0 11.0 0.00 0.00 0.00 59 1016.5
20260501202010 69 216 5.0 10.0 0.00 0.00 0.00 58 1016.5
20260501201510 70 217 5.0 10.0 0.00 0.00 0.00 58 1016.5